441  
ASUS44 KLCH 240510  
RWRLCH  
REGIONAL WEATHER ROUNDUP  
NATIONAL WEATHER SERVICE LAKE CHARLES LA  
1100 PM CST TUE JAN 23 2018  
 
NOTE: "FAIR" INDICATES FEW OR NO CLOUDS BELOW 12,000 FEET WITH NO  
SIGNIFICANT WEATHER AND/OR S TO VISIBILITY
.  
 
ACROSS SOUTHEAST TEXAS  
 
CITY SKY/WX TMP DP RH WIND PRES REMARKS
 
BEAUMONT FAIR 43 31 62 N3 30.31R  
BEAUMONT CITY FAIR 42 33 71 CALM 30.32R  
ORANGE FAIR 38 36 94 CALM 30.32S  
JASPER FAIR 37 36 95 CALM 30.34S  

 
 
ACROSS CENTRAL LOUISIANA  
 
CITY SKY/WX TMP DP RH WIND PRES REMARKS
 
LEESVILLE FAIR 35 32 88 N6 30.29F  
FULLERTON FAIR 38 34 85 CALM 30.27F  
ALEXANDRIA INT FAIR 40 33 76 CALM 30.30R  
ESLER FIELD FAIR 33 32 96 CALM 30.30S  
DERIDDER FAIR 38 31 76 CALM 30.32S  
OAKDALE FAIR 31 30 94 CALM 30.30S  
OPELOUSAS FAIR 46 28 51 N5 30.29R  

 
 
ACROSS SOUTHWEST AND SOUTH CENTRAL LOUISIANA  
 
CITY SKY/WX TMP DP RH WIND PRES REMARKS
 
SULPHUR FAIR 44 30 57 N3 30.31R  
LAKE CHARLES FAIR 46 31 55 N3 30.30R  
CHENNAULT INT FAIR 43 28 54 CALM 30.31R  
CAMERON PHI CLEAR 50 39 66 N3 30.30R  
DEQUINCY FAIR 35 31 85 CALM 30.31R  
JENNINGS FAIR 47 35 60 N6 30.30S  
LAFAYETTE FAIR 48 27 44 N6 30.28S  
NEW IBERIA FAIR 47 33 58 N5 30.28R  
ABBEVILLE FAIR 45 31 59 N5 30.29R  
PATTERSON FAIR 48 35 60 CALM 30.28R HAZE  
SALT POINT N/A 48 32 53 CALM 30.27R  

 
 
SELECTED SITES ACROSS THE REGION  
 
CITY SKY/WX TMP DP RH WIND PRES REMARKS
 
HOUSTON BUSH MOCLDY 47 28 47 NW5 30.32S  
HOUSTON HOBBY MOCLDY 47 29 49 N5 30.32R  
GALVESTON FAIR 52 43 71 N3 30.32S  
COLLEGE STAT CLOUDY 46 24 42 N5 30.35R  
CONROE CLOUDY 34 32 92 N3 30.33R  
HUNTSVILLE CLOUDY 44 25 47 CALM 30.33R  
LUFKIN CLOUDY 41 26 55 N3 30.33R  
SHREVEPORT PTCLDY 40 26 57 NW3 30.32S  
MONROE FAIR 41 29 62 CALM 30.32S  
NATCHEZ MS FAIR 35 30 82 CALM 30.30S  
BATON ROUGE FAIR 43 33 68 N3 30.27S  
N.O. INTL ARPT MOCLDY 51 34 52 N9 30.26R  
SLIDELL FAIR 46 28 49 N6 30.25S  

 
 
MARINE REPORTS  
 
STATION/POSITION TIME SKY/WX TEMP WIND PRES VSBY
 
AIR SEA DIR/SP/G  
(UTC) (F) (DEG/KT/KT) (MB) (MI)  
BUOY 30 S HIGH I 0350 54 54 350/ 6/ 8 1026.4  
WVE H/P(F/S)= 1/ 8  
 
SEA RIM ST PARK 0500 49 340/ 3/ 3 1026.8R  
PORT ARTHUR 0448 49 51 360/ 1/ 1 1026.5R  
SABINE PASS N 0448 49 56 30/ 4/ 4 1027.8R  
TEXAS POINT NOT AVBL  
CALCASIEU PASS 0448 50 50 10/ 4/ 6 1024.8R  
LK CHARLES BEACH 0436 50 55 1025.6R  
MARSH ISLAND 0400 53 N/A  
FRESH WATER LOCK 0448 49 50 350/ 5/ 8 1025.5R  
AMERADA PASS 0448 50 45 320/ 2/ 3 1025.0F  

 
 
 
CLICK HERE TO GO TO PREVIOUS BULLETINS.

The Nexlab LA Page
The Nexlab TX Page Main Text Page